This demonstration page uses our WeatherBlox Daily Observations layout. Learn more.

Left ArrowRight Arrow

40.92501, -98.34201

Hourly Observations for August 19, 2022

Temp ( °F °C ) Dew Point ( °F °C ) Humidity (%) Winds ( mph kmh ) Pressure ( in mb ) Visibility ( mi km ) Precip ( " mm )
12:53 am 00:53 Clear 70 21.1 59 15 68 68 NNW 7 11 29.91 1013 10 16 0.00 0.00
1:53 am 01:53 Clear 67 19.4 59 15 76 76 N 6 9 29.91 1013 10 16 0.00 0.00
2:53 am 02:53 Mostly Cloudy 66 18.9 59 15 78 78 Calm 29.89 1012 10 16 0.00 0.00
3:53 am 03:53 Mostly Cloudy 66 18.9 60 15.6 81 81 Calm 29.88 1012 10 16 0.00 0.00
4:53 am 04:53 Mostly Cloudy 66 18.9 60 15.6 81 81 SSW 3 6 29.88 1012 10 16 0.00 0.00
5:53 am 05:53 Partly Cloudy 65 18.3 60 15.6 84 84 Calm 29.88 1012 10 16 0.00 0.00
6:53 am 06:53 Partly Cloudy 66 18.9 61 16.1 84 84 WNW 3 6 29.88 1012 10 16 0.00 0.00
7:53 am 07:53 Sunny 67 19.4 60 15.6 79 79 N 8 13 29.90 1013 10 16 0.00 0.00
8:53 am 08:53 Sunny 71 21.7 61 16.1 70 70 N 6 9 29.92 1013 10 16 0.00 0.00
9:53 am 09:53 Mostly Sunny 75 23.9 62 16.7 64 64 N 8 13 29.92 1013 10 16 0.00 0.00
10:53 am 10:53 Mostly Sunny 77 25 63 17.2 62 62 WNW 3 6 29.93 1014 10 16 0.00 0.00
11:53 am 11:53 Partly Cloudy 82 27.8 61 16.1 49 49 WNW 5 7 29.92 1013 10 16 0.00 0.00
12:53 pm 12:53 Mostly Cloudy 83 28.3 59 15 44 44 WNW 7 11 29.91 1013 10 16 0.00 0.00
1:53 pm 13:53 Partly Cloudy 86 30 57 13.9 37 37 NNE 6 9 29.91 1013 10 16 0.00 0.00
2:53 pm 14:53 Partly Cloudy 88 31.1 55 12.8 33 33 N 10 17 29.89 1012 10 16 0.00 0.00
3:53 pm 15:53 Sunny 87 30.6 51 10.6 29 29 NNW 16 26 29.87 1012 10 16 0.00 0.00
4:53 pm 16:53 Sunny 87 30.6 53 11.7 31 31 NW 15 24 29.86 1011 10 16 0.00 0.00
5:53 pm 17:53 Sunny 87 30.6 50 10 28 28 NNW 15 24 29.87 1011 10 16 0.00 0.00
6:53 pm 18:53 Sunny 85 29.4 50 10 30 30 NNW 10 17 29.88 1012 10 16 0.00 0.00
7:53 pm 19:53 Sunny 79 26.1 52 11.1 39 39 N 7 11 29.89 1012 10 16 0.00 0.00
8:53 pm 20:53 Clear 71 21.7 54 12.2 55 55 N 5 7 29.92 1013 10 16 0.00 0.00
9:53 pm 21:53 Clear 68 20 55 12.8 63 63 Calm 29.94 1014 10 16 0.00 0.00
10:53 pm 22:53 Clear 65 18.3 54 12.2 68 68 S 3 6 29.96 1015 10 16 0.00 0.00
11:53 pm 23:53 Mostly Clear 64 17.8 55 12.8 73 73 Calm 29.97 1015 10 16 0.00 0.00

Powered by AerisWeather